London-Corbin, KY

12:44 AM EST on December 18, 2017 (GMT -0500)
London-Corbin / McKee

Weather History for KLOZ - November, 2013

Change the Weather History Date:

Friday, November 22, 2013

  Actual Average Record
Temperature  
Mean Temperature 53 °F 45 °F  
Max Temperature 61 °F 56 °F 75 °F (1963)
Min Temperature 44 °F 35 °F 11 °F (1964)
Degree Days  
Heating Degree Days 12 20  
Month to date heating degree days 363 356  
Since 1 July heating degree days 607 662  
Cooling Degree Days 0 0  
Month to date cooling degree days 0 0  
Year to date cooling degree days 1083 1188  
Growing Degree Days 2 (Base 50)    
Moisture  
Dew Point 53 °F    
Average Humidity 80    
Maximum Humidity 93    
Minimum Humidity 67    
Precipitation  
Precipitation 0.31 in 0.14 in 2.18 in (1991)
Month to date precipitation 1.60 2.70  
Year to date precipitation 48.80  
Sea Level Pressure  
Sea Level Pressure 30.22 in    
Wind  
Wind Speed 7 mph (West)    
Max Wind Speed 17 mph    
Max Gust Speed 23 mph    
Visibility 7 miles    
Events Rain    
T = Trace of Precipitation, MM = Missing Value Source: NWS Daily Summary

Daily Weather History Graph

Daily Weather History Graph

Search for Another Location

Airport or City:

Trip Planner

Search our weather history database for the weather conditions in past years. The results will help you decide how hot, cold, wet, or windy it might be!

Date:

Astronomy

Nov. 22, 2013 Rise Set
Actual Time 7:22 AM EST 5:22 PM EST
Civil Twilight 6:54 AM EST 5:50 PM EST
Nautical Twilight 6:22 AM EST 6:22 PM EST
Astronomical Twilight 5:51 AM EST 6:53 PM EST
Moon 9:51 PM EST (11/22) 11:06 AM EST (11/22)
Length of Visible Light 10h 55m
Length of Day
9h 59m
Waning Gibbous, 78% of the Moon is Illuminated
Nov 22
Waning Gibbous
Nov 25
Last Quarter
Dec 2
New
Dec 9
First Quarter
Dec 17
Full

Hourly Weather History & Observations

Time (EST) Temp. Windchill Dew Point Humidity Pressure Visibility Wind Dir Wind Speed Gust Speed Precip Events Conditions
12:53 AM 57.9 °F - 48.9 °F 72% 30.24 in 10.0 mi SW 5.8 mph - N/A   Overcast
1:53 AM 57.9 °F - 48.9 °F 72% 30.22 in 10.0 mi South 4.6 mph - N/A   Overcast
2:53 AM 55.9 °F - 48.9 °F 77% 30.23 in 10.0 mi West 3.5 mph - N/A   Overcast
3:53 AM 55.9 °F - 48.9 °F 77% 30.22 in 10.0 mi Calm Calm - N/A   Overcast
4:13 AM 55.9 °F - 50.0 °F 80% 30.23 in 10.0 mi Calm Calm - N/A   Overcast
4:53 AM 55.9 °F - 50.0 °F 80% 30.22 in 10.0 mi Calm Calm - N/A   Overcast
5:53 AM 57.9 °F - 51.1 °F 78% 30.22 in 10.0 mi Calm Calm - N/A   Overcast
6:53 AM 59.0 °F - 53.1 °F 81% 30.23 in 10.0 mi SSW 5.8 mph - N/A   Overcast
7:17 AM 60.1 °F - 54.0 °F 80% 30.25 in 10.0 mi SW 9.2 mph - N/A   Overcast
7:53 AM 60.1 °F - 55.9 °F 86% 30.24 in 5.0 mi SW 5.8 mph - 0.00 in Rain Light Rain
8:20 AM 59.0 °F - 55.9 °F 90% 30.25 in 10.0 mi SSW 3.5 mph - 0.01 in   Overcast
8:38 AM 59.0 °F - 55.9 °F 90% 30.25 in 10.0 mi SSW 6.9 mph - 0.01 in   Overcast
8:53 AM 59.0 °F - 55.9 °F 90% 30.24 in 10.0 mi SSW 5.8 mph - 0.01 in   Overcast
8:58 AM 59.0 °F - 55.9 °F 90% 30.24 in 10.0 mi SSW 5.8 mph - N/A   Overcast
9:35 AM 59.0 °F - 55.9 °F 90% 30.25 in 5.0 mi SSW 9.2 mph - 0.00 in Rain Light Rain
9:53 AM 59.0 °F - 55.9 °F 90% 30.23 in 3.0 mi SSW 8.1 mph - 0.00 in Rain Light Rain
10:10 AM 59.0 °F - 55.9 °F 90% 30.25 in 9.0 mi SSW 6.9 mph - 0.00 in   Overcast
10:29 AM 60.1 °F - 55.9 °F 86% 30.25 in 10.0 mi SW 6.9 mph - 0.00 in   Overcast
10:53 AM 60.1 °F - 55.9 °F 86% 30.24 in 10.0 mi SW 9.2 mph - 0.00 in   Overcast
11:53 AM 59.0 °F - 55.9 °F 90% 30.22 in 4.0 mi SW 4.6 mph - 0.03 in Rain Light Rain
12:15 PM 59.0 °F - 55.9 °F 90% 30.23 in 2.5 mi WSW 6.9 mph - 0.00 in Rain Light Rain
12:37 PM 59.0 °F - 57.0 °F 93% 30.22 in 1.8 mi SW 4.6 mph - 0.02 in Rain Light Rain
12:44 PM 59.0 °F - 57.0 °F 93% 30.21 in 3.0 mi WSW 6.9 mph - 0.02 in Rain Light Rain
12:53 PM 60.1 °F - 57.0 °F 90% 30.20 in 3.0 mi SW 6.9 mph - 0.03 in Rain Light Rain
1:53 PM 60.1 °F - 57.0 °F 90% 30.18 in 6.0 mi WSW 5.8 mph - 0.01 in Rain Light Rain
2:50 PM 60.8 °F - 57.2 °F 88% 30.18 in 2.0 mi WSW 4.6 mph - 0.04 in Rain Light Rain
2:53 PM 60.1 °F - 57.0 °F 90% 30.17 in 2.0 mi WSW 4.6 mph - 0.05 in Rain Light Rain
3:19 PM 60.1 °F - 57.0 °F 90% 30.18 in 3.0 mi WNW 4.6 mph - 0.05 in Rain Light Rain
3:26 PM 60.1 °F - 57.0 °F 90% 30.18 in 2.0 mi West 8.1 mph - 0.07 in Rain Rain
3:32 PM 60.1 °F - 57.0 °F 90% 30.18 in 3.0 mi West 9.2 mph - 0.08 in Rain Light Rain
3:43 PM 59.0 °F - 55.9 °F 90% 30.18 in 3.0 mi West 11.5 mph - 0.09 in Rain Light Rain
3:53 PM 59.0 °F - 55.9 °F 90% 30.17 in 4.0 mi West 9.2 mph - 0.10 in Rain Light Rain
4:02 PM 59.0 °F - 55.9 °F 90% 30.19 in 4.0 mi WNW 10.4 mph - 0.01 in Rain Light Rain
4:17 PM 59.0 °F - 55.0 °F 87% 30.19 in 7.0 mi West 9.2 mph - 0.01 in Rain Light Rain
4:31 PM 59.0 °F - 55.0 °F 87% 30.19 in 6.0 mi WNW 9.2 mph - 0.01 in Rain Light Rain
4:38 PM 57.9 °F - 55.0 °F 90% 30.20 in 7.0 mi WNW 9.2 mph - 0.01 in Rain Light Rain
4:53 PM 57.9 °F - 55.0 °F 90% 30.19 in 5.0 mi WNW 8.1 mph - 0.03 in Rain Light Rain
5:27 PM 55.0 °F - 51.1 °F 86% 30.21 in 8.0 mi NNW 11.5 mph 20.7 mph 0.01 in Rain Light Rain
5:53 PM 55.0 °F - 51.1 °F 86% 30.21 in 10.0 mi NNW 9.2 mph - 0.01 in   Overcast
6:53 PM 53.1 °F - 48.9 °F 86% 30.23 in 10.0 mi NNW 10.4 mph - 0.02 in Rain Light Rain
7:53 PM 51.1 °F - 48.0 °F 89% 30.25 in 7.0 mi North 9.2 mph - 0.01 in Rain Light Rain
8:53 PM 50.0 °F - 46.0 °F 86% 30.27 in 10.0 mi NNW 9.2 mph - 0.01 in   Overcast
9:53 PM 48.0 °F - 45.0 °F 89% 30.28 in 7.0 mi NNW 10.4 mph - N/A   Overcast
10:53 PM 46.9 °F - 42.1 °F 83% 30.29 in 7.0 mi North 9.2 mph - N/A   Overcast
11:39 PM 45.0 °F 38.9 °F 39.9 °F 82% 30.31 in 8.0 mi North 12.7 mph - N/A   Overcast
11:53 PM 45.0 °F 39.3 °F 39.9 °F 82% 30.31 in 9.0 mi North 11.5 mph - N/A   Overcast